TimeMDT,TemperatureF,Dew PointF,Humidity,Sea Level PressureIn,VisibilityMPH,Wind Direction,Wind SpeedMPH,Gust SpeedMPH,PrecipitationIn,Events,Conditions,WindDirDegrees,DateUTC
12:53 AM,61.0,55.0,81,29.83,10.0,SW,9.2,-,N/A,,Clear,230,2013-08-02 06:53:00
1:53 AM,63.0,55.9,78,29.81,10.0,SW,8.1,-,N/A,,Clear,230,2013-08-02 07:53:00
2:53 AM,60.1,55.0,83,29.82,10.0,Calm,Calm,-,N/A,,Clear,0,2013-08-02 08:53:00
3:53 AM,55.9,53.1,90,29.82,10.0,Calm,Calm,-,N/A,,Clear,0,2013-08-02 09:53:00
4:53 AM,57.0,54.0,89,29.83,10.0,Calm,Calm,-,N/A,,Clear,0,2013-08-02 10:53:00
5:53 AM,57.9,55.0,90,29.86,9.0,ENE,8.1,-,N/A,,Clear,60,2013-08-02 11:53:00
6:32 AM,57.2,53.6,88,29.99,10.0,ESE,3.5,-,N/A,,Partly Cloudy,120,2013-08-02 12:32:00
6:53 AM,61.0,57.9,90,29.88,10.0,SSE,4.6,-,N/A,,Partly Cloudy,160,2013-08-02 12:53:00
7:53 AM,66.0,60.1,81,29.86,10.0,South,5.8,-,N/A,,Partly Cloudy,180,2013-08-02 13:53:00
8:53 AM,71.1,60.1,68,29.85,10.0,Variable,5.8,-,N/A,,Clear,0,2013-08-02 14:53:00
9:53 AM,78.1,60.1,54,29.84,10.0,West,9.2,-,N/A,,Clear,260,2013-08-02 15:53:00
10:53 AM,84.9,57.0,38,29.84,10.0,WNW,8.1,-,N/A,,Clear,300,2013-08-02 16:53:00
11:53 AM,91.0,50.0,24,29.83,10.0,North,10.4,16.1,N/A,,Clear,360,2013-08-02 17:53:00
12:53 PM,93.0,50.0,23,29.82,10.0,NE,9.2,-,N/A,,Clear,40,2013-08-02 18:53:00
1:53 PM,91.0,51.1,25,29.84,10.0,NE,12.7,21.9,N/A,,Clear,40,2013-08-02 19:53:00
2:53 PM,87.1,60.1,40,29.86,10.0,ENE,21.9,28.8,N/A,,Clear,70,2013-08-02 20:53:00
3:53 PM,88.0,60.1,39,29.87,10.0,ENE,20.7,25.3,N/A,,Clear,70,2013-08-02 21:53:00
4:53 PM,86.0,57.9,38,29.86,10.0,East,13.8,-,N/A,,Clear,80,2013-08-02 22:53:00
5:53 PM,84.9,60.1,43,29.86,10.0,East,18.4,24.2,N/A,,Clear,100,2013-08-02 23:53:00
6:53 PM,81.0,61.0,50,29.89,10.0,SE,15.0,21.9,N/A,,Clear,130,2013-08-03 00:53:00
7:53 PM,77.0,61.0,58,29.89,10.0,ESE,10.4,-,N/A,,Clear,120,2013-08-03 01:53:00
8:53 PM,72.0,62.1,71,29.92,10.0,ESE,6.9,-,N/A,,Clear,120,2013-08-03 02:53:00
9:53 PM,70.0,62.1,76,29.94,10.0,East,8.1,-,N/A,,Clear,100,2013-08-03 03:53:00
10:53 PM,69.1,64.0,84,29.92,10.0,East,11.5,-,N/A,,Clear,100,2013-08-03 04:53:00
11:53 PM,69.1,64.0,84,29.95,8.0,SSE,16.1,-,0.00,Rain,Light Rain,160,2013-08-03 05:53:00